Location: Borotín
(49.5055°N, 14.6142°E)
Time: 05:58:07
(UTC+00:00)

SL-16 R/B - Pass Details

Date: 27 May 2022
Orbit: 839 x 850 km, 71.0° (Epoch: 28 June)

Event Time Altitude Azimuth Distance (km) Brightness Sun altitude
Exits shadow 01:44:26 13° 231° (SW) 2,283 3.8 -10.2°
Maximum altitude 01:49:26 51° 305° (NW) 1,060 2.7 -9.7°
Drops below altitude 10° 01:54:59 10° 22° (NNE) 2,480 6.0 -9.1°
Sets 01:57:32 0° 27° (NNE) 3,420 7.2 -8.9°
